Hourly Data Report for October 16, 2013

All times are specified in Local Standard Time (LST). Add 1 hour to adjust for Daylight Saving Time where and when it is observed.

ARVIAT A
NUNAVUT

61°05'38.000" N
94°04'18.000" W
10.40 m
2300427
71174
YEK

Download Data

Hourly Data (October 2013)
Hourly Data Report for October 16, 2013
Temp Definition
°C
Dew Point Temp Definition
°C
Rel Hum Definition
%
Wind Dir Definition
10's deg

Wind Spd Definition
km/h
Visibility Definition
km
Stn Press Definition
kPa
Hmdx Definition


Wind Chill Definition


Weather Definition


TIME
00:00 Legend Double Dagger 1.1 1.0 99 12 33 16.1 99.70     LegendNANA
01:00 Legend Double Dagger 1.2 0.9 98 12 33 12.9 99.59     LegendNANA
02:00 Legend Double Dagger 1.5 1.2 98 11 33 9.7 99.46     LegendNANA
03:00 Legend Double Dagger 1.9 1.7 99 10 33 6.4 99.38     LegendNANA
04:00 Legend Double Dagger 1.9 1.8 99 8 33 4.8 99.29     LegendNANA
05:00 Legend Double Dagger 1.8 1.7 99 7 35 4.8 99.21     LegendNANA
06:00 Legend Double Dagger 0.7 0.7 100 6 39 6.4 99.16     LegendNANA
07:00 Legend Double Dagger 0.6 0.6 100 6 39 3.2 99.17     LegendNANA
08:00 Legend Double Dagger 0.7 0.7 100 5 45 3.6 99.15     LegendNANA
09:00 Legend Double Dagger 0.7 0.6 99 4 42 4.8 99.20     LegendNANA
10:00 Legend Double Dagger 0.7 0.6 99 3 45 4.0 99.25     LegendNANA
11:00 Legend Double Dagger 0.5 0.5 100 1 42 2.0 99.35     LegendNANA
12:00 Legend Double Dagger 0.3 0.2 99 36 45 2.0 99.42     LegendNANA
13:00 Legend Double Dagger -0.2 -0.5 98 36 52 2.4 99.50   -9 LegendNANA
14:00 Legend Double Dagger -0.8 -1.2 97 35 54 1.6 99.60   -10 LegendNANA
15:00 Legend Double Dagger -1.5 -1.9 97 35 50 2.0 99.68   -10 LegendNANA
16:00 Legend Double Dagger -1.9 -2.6 95 35 52 6.4 99.76   -11 LegendNANA
17:00 Legend Double Dagger -2.2 -3.0 95 35 50 16.1 99.83   -11 LegendNANA
18:00 Legend Double Dagger -2.5 -3.2 95 34 42 12.9 99.93   -11 LegendNANA
19:00 Legend Double Dagger -2.4 -3.1 95 34 45 16.1 99.98   -11 LegendNANA
20:00 Legend Double Dagger -2.3 -3.0 95 34 45 14.5 99.96   -11 LegendNANA
21:00 Legend Double Dagger -2.5 -3.3 94 34 48 8.1 99.99   -11 LegendNANA
22:00 Legend Double Dagger -2.4 -3.1 95 34 39 9.7 100.00   -11 LegendNANA
23:00 Legend Double Dagger -2.7 -3.3 96 33 39 4.8 99.99   -11 LegendNANA

Notes on Data Quality.

Legend

  • E = Estimated
  • M = Missing
  • NA = Not Available
  • ‡ = Partner data that is not subject to review by the National Climate Archives
Date modified: